Regional Weather Roundup
Issued by NWS

Home | Current Version | Previous Version | Text Only | Print | Product List | Glossary On
Versions: 1 2 3 4 5 6 7 8 9 10 11 12 13 14 15 16 17 18 19 20 21 22 23 24 25 26 27 28 29 30 31 32 33 34 35 36 37 38 39 40 41 42 43 44 45 46 47 48 49 50
000
ASUS43 KFSD 181102
RWRSD

WEATHER ROUNDUP FOR SOUTH DAKOTA
NATIONAL WEATHER SERVICE SIOUX FALLS SD
600 AM CDT WED MAY 18 2022

NOTE: "FAIR" INDICATES FEW OR NO CLOUDS BELOW 12,000 FEET WITH NO
SIGNIFICANT WEATHER AND/OR OBSTRUCTIONS TO VISIBILITY.


SDZ001>005-009-010-012>017-181200-
NORTHWEST AND NORTH CENTRAL SOUTH DAKOTA

CITY           SKY/WX    TMP DP  RH WIND       PRES   REMARKS
BUFFALO          N/A     54  46  74 N18       29.92R
FAITH            N/A     50  47  89 NW8       29.90R
MOBRIDGE       CLEAR     46  43  89 CALM      29.85R FOG
$$

SDZ012>016-024>037-041>051-057-063-072>074-181200-
SOUTHWEST AND SOUTH CENTRAL SOUTH DAKOTA

CITY           SKY/WX    TMP DP  RH WIND       PRES   REMARKS
RAPID CTY ARPT CLEAR     50  46  86 NW8       29.95R
PIERRE         CLEAR     48  46  93 W7        29.88R
CUSTER         CLEAR     44  42  93 W3        30.05R
ELLSWORTH AFB  CLEAR     48  42  81 NW7       29.93S
PHILIP         CLEAR     47  47 100 W5        29.91R
PINE RIDGE     PTCLDY    42  42 100 CALM      29.98F FOG
SPEARFISH      FAIR      48  43  81 SW7       29.97F
WINNER         CLEAR     53  49  86 SW8       29.91S
$$

SDZ004>011-016>023-039-040-181200-
NORTHEAST SOUTH DAKOTA

CITY           SKY/WX    TMP DP  RH WIND       PRES   REMARKS
ABERDEEN       MOCLDY    50  49  96 S7        29.87F FOG
WATERTOWN      FOG       51  51 100 S3        29.87S VSB 1/4
BROOKINGS      FOG       45  44  97 CALM      29.88R VSB 1/4
SISSETON         N/A     50  48  93 S5        29.86S
$$

SDZ017-020-022-023-036>040-048>070-181200-
SOUTHEAST SOUTH DAKOTA

CITY           SKY/WX    TMP DP  RH WIND       PRES   REMARKS
SIOUX FALLS    PTCLDY    47  46  97 N3        29.86S FOG
HURON          FOG       47  45  93 CALM      29.87F VSB 1/2
MITCHELL       FOG       46  45  96 NW3       29.88S VSB 1/4
YANKTON        MOCLDY    50  50 100 N6        29.86S FOG
$$

ABBREVIATIONS USED IN REMARKS
   TC - TEMPERATURE IN CELSIUS
  WCI - WIND CHILL INDEX
   HX - HEAT INDEX
  VSB - VISIBILITY




USA.gov is the U.S. government's official web portal to all federal, state and local government web resources and services.